#datetime,building,power
2023-11-09T00:00:00,mnr,5.51
2023-11-09T00:01:00,mnr,5.70
2023-11-09T00:02:00,mnr,5.78
2023-11-09T00:03:00,mnr,6.07
2023-11-09T00:04:00,mnr,5.77
2023-11-09T00:05:00,mnr,5.78
2023-11-09T00:06:00,mnr,6.12
2023-11-09T00:07:00,mnr,6.40
2023-11-09T00:08:00,mnr,6.97
2023-11-09T00:09:00,mnr,7.25
2023-11-09T00:10:00,mnr,7.27
2023-11-09T00:11:00,mnr,7.25
2023-11-09T00:12:00,mnr,7.35
2023-11-09T00:13:00,mnr,7.26
2023-11-09T00:14:00,mnr,7.22
2023-11-09T00:15:00,mnr,7.25
2023-11-09T00:16:00,mnr,7.23
2023-11-09T00:17:00,mnr,7.04
2023-11-09T00:18:00,mnr,7.77
2023-11-09T00:19:00,mnr,7.05
2023-11-09T00:20:00,mnr,7.01
2023-11-09T00:21:00,mnr,6.85
2023-11-09T00:22:00,mnr,6.90
2023-11-09T00:23:00,mnr,7.16
2023-11-09T00:24:00,mnr,6.36
2023-11-09T00:25:00,mnr,6.40
2023-11-09T00:26:00,mnr,7.00
2023-11-09T00:27:00,mnr,6.41
2023-11-09T00:28:00,mnr,6.43
2023-11-09T00:29:00,mnr,6.40
2023-11-09T00:30:00,mnr,6.45
2023-11-09T00:31:00,mnr,6.35
2023-11-09T00:32:00,mnr,6.34
2023-11-09T00:33:00,mnr,6.32
2023-11-09T00:34:00,mnr,6.36
2023-11-09T00:35:00,mnr,7.00
2023-11-09T00:36:00,mnr,6.33
2023-11-09T00:37:00,mnr,6.28
2023-11-09T00:38:00,mnr,7.01
2023-11-09T00:39:00,mnr,6.23
2023-11-09T00:40:00,mnr,7.18
2023-11-09T00:41:00,mnr,6.21
2023-11-09T00:42:00,mnr,6.26
2023-11-09T00:43:00,mnr,6.19
2023-11-09T00:44:00,mnr,6.26
2023-11-09T00:45:00,mnr,6.22
2023-11-09T00:46:00,mnr,6.47
2023-11-09T00:47:00,mnr,6.64
2023-11-09T00:48:00,mnr,6.60
2023-11-09T00:49:00,mnr,6.93
2023-11-09T00:50:00,mnr,6.60
2023-11-09T00:51:00,mnr,6.56
2023-11-09T00:52:00,mnr,6.57
2023-11-09T00:53:00,mnr,6.54
2023-11-09T00:54:00,mnr,7.24
2023-11-09T00:55:00,mnr,6.46
2023-11-09T00:56:00,mnr,6.49
2023-11-09T00:57:00,mnr,6.63
2023-11-09T00:58:00,mnr,6.55
2023-11-09T00:59:00,mnr,6.51
2023-11-09T01:00:00,mnr,6.51
2023-11-09T01:01:00,mnr,5.99
2023-11-09T01:02:00,mnr,6.92
2023-11-09T01:03:00,mnr,5.92
2023-11-09T01:04:00,mnr,5.88
2023-11-09T01:05:00,mnr,6.58
2023-11-09T01:06:00,mnr,6.03
2023-11-09T01:07:00,mnr,5.98
2023-11-09T01:08:00,mnr,6.05
2023-11-09T01:09:00,mnr,6.71
2023-11-09T01:10:00,mnr,6.05
2023-11-09T01:11:00,mnr,5.97
2023-11-09T01:12:00,mnr,5.93
2023-11-09T01:13:00,mnr,5.98
2023-11-09T01:14:00,mnr,5.91
2023-11-09T01:15:00,mnr,6.33
2023-11-09T01:16:00,mnr,5.35
2023-11-09T01:17:00,mnr,5.27
2023-11-09T01:18:00,mnr,5.67
2023-11-09T01:19:00,mnr,5.58
2023-11-09T01:20:00,mnr,5.11
2023-11-09T01:21:00,mnr,5.15
2023-11-09T01:22:00,mnr,5.04
2023-11-09T01:23:00,mnr,5.73
2023-11-09T01:24:00,mnr,5.01
2023-11-09T01:25:00,mnr,5.00
2023-11-09T01:26:00,mnr,5.01
2023-11-09T01:27:00,mnr,5.70
2023-11-09T01:28:00,mnr,5.02
2023-11-09T01:29:00,mnr,5.04
2023-11-09T01:30:00,mnr,5.58
2023-11-09T01:31:00,mnr,5.57
2023-11-09T01:32:00,mnr,5.61
2023-11-09T01:33:00,mnr,5.58
2023-11-09T01:34:00,mnr,5.62
2023-11-09T01:35:00,mnr,5.63
2023-11-09T01:36:00,mnr,5.63
2023-11-09T01:37:00,mnr,5.83
2023-11-09T01:38:00,mnr,5.66
2023-11-09T01:39:00,mnr,5.66
2023-11-09T01:40:00,mnr,5.67
2023-11-09T01:41:00,mnr,5.73
2023-11-09T01:42:00,mnr,6.33
2023-11-09T01:43:00,mnr,5.69
2023-11-09T01:44:00,mnr,5.98
2023-11-09T01:45:00,mnr,6.33
2023-11-09T01:46:00,mnr,5.64
2023-11-09T01:47:00,mnr,5.64
2023-11-09T01:48:00,mnr,5.66
2023-11-09T01:49:00,mnr,5.70
2023-11-09T01:50:00,mnr,5.69
2023-11-09T01:51:00,mnr,6.53
2023-11-09T01:52:00,mnr,5.01
2023-11-09T01:53:00,mnr,5.11
2023-11-09T01:54:00,mnr,4.99
2023-11-09T01:55:00,mnr,5.03
2023-11-09T01:56:00,mnr,5.00
2023-11-09T01:57:00,mnr,5.06
2023-11-09T01:58:00,mnr,4.99
2023-11-09T01:59:00,mnr,4.98
2023-11-09T02:00:00,mnr,4.87
2023-11-09T02:01:00,mnr,4.77
2023-11-09T02:02:00,mnr,4.70
2023-11-09T02:03:00,mnr,4.78
2023-11-09T02:04:00,mnr,6.24
2023-11-09T02:05:00,mnr,4.86
2023-11-09T02:06:00,mnr,4.84
2023-11-09T02:07:00,mnr,4.80
2023-11-09T02:08:00,mnr,4.82
2023-11-09T02:09:00,mnr,4.76
2023-11-09T02:10:00,mnr,4.74
2023-11-09T02:11:00,mnr,4.77
2023-11-09T02:12:00,mnr,5.16
2023-11-09T02:13:00,mnr,5.20
2023-11-09T02:14:00,mnr,5.16
2023-11-09T02:15:00,mnr,4.62
2023-11-09T02:16:00,mnr,5.28
2023-11-09T02:17:00,mnr,4.69
2023-11-09T02:18:00,mnr,6.34
2023-11-09T02:19:00,mnr,5.36
2023-11-09T02:20:00,mnr,5.46
2023-11-09T02:21:00,mnr,4.75
2023-11-09T02:22:00,mnr,5.30
2023-11-09T02:23:00,mnr,4.76
2023-11-09T02:24:00,mnr,5.99
2023-11-09T02:25:00,mnr,4.81
2023-11-09T02:26:00,mnr,4.98
2023-11-09T02:27:00,mnr,4.33
2023-11-09T02:28:00,mnr,4.26
2023-11-09T02:29:00,mnr,4.26
2023-11-09T02:30:00,mnr,4.32
2023-11-09T02:31:00,mnr,4.80
2023-11-09T02:32:00,mnr,4.47
2023-11-09T02:33:00,mnr,4.52
2023-11-09T02:34:00,mnr,4.50
2023-11-09T02:35:00,mnr,4.46
2023-11-09T02:36:00,mnr,4.50
2023-11-09T02:37:00,mnr,4.62
2023-11-09T02:38:00,mnr,4.61
2023-11-09T02:39:00,mnr,4.88
2023-11-09T02:40:00,mnr,5.17
2023-11-09T02:41:00,mnr,4.47
2023-11-09T02:42:00,mnr,5.09
2023-11-09T02:43:00,mnr,4.46
2023-11-09T02:44:00,mnr,5.10
2023-11-09T02:45:00,mnr,4.66
2023-11-09T02:46:00,mnr,5.09
2023-11-09T02:47:00,mnr,4.87
2023-11-09T02:48:00,mnr,5.03
2023-11-09T02:49:00,mnr,4.38
2023-11-09T02:50:00,mnr,4.33
2023-11-09T02:51:00,mnr,4.34
2023-11-09T02:52:00,mnr,5.07
2023-11-09T02:53:00,mnr,4.30
2023-11-09T02:54:00,mnr,4.33
2023-11-09T02:55:00,mnr,4.30
2023-11-09T02:56:00,mnr,4.91
2023-11-09T02:57:00,mnr,5.42
2023-11-09T02:58:00,mnr,4.32
2023-11-09T02:59:00,mnr,4.29
2023-11-09T03:00:00,mnr,4.34
2023-11-09T03:01:00,mnr,4.32
2023-11-09T03:02:00,mnr,4.83
2023-11-09T03:03:00,mnr,4.31
2023-11-09T03:04:00,mnr,4.88
2023-11-09T03:05:00,mnr,4.24
2023-11-09T03:06:00,mnr,4.20
2023-11-09T03:07:00,mnr,5.15
2023-11-09T03:08:00,mnr,4.29
2023-11-09T03:09:00,mnr,4.56
2023-11-09T03:10:00,mnr,4.70
2023-11-09T03:11:00,mnr,4.81
2023-11-09T03:12:00,mnr,4.67
2023-11-09T03:13:00,mnr,4.68
2023-11-09T03:14:00,mnr,5.27
2023-11-09T03:15:00,mnr,4.73
2023-11-09T03:16:00,mnr,4.77
2023-11-09T03:17:00,mnr,4.77
2023-11-09T03:18:00,mnr,4.80
2023-11-09T03:19:00,mnr,4.74
2023-11-09T03:20:00,mnr,5.36
2023-11-09T03:21:00,mnr,5.20
2023-11-09T03:22:00,mnr,5.91
2023-11-09T03:23:00,mnr,5.65
2023-11-09T03:24:00,mnr,5.38
2023-11-09T03:25:00,mnr,5.61
2023-11-09T03:26:00,mnr,5.35
2023-11-09T03:27:00,mnr,4.80
2023-11-09T03:28:00,mnr,4.74
2023-11-09T03:29:00,mnr,5.40
2023-11-09T03:30:00,mnr,5.42
2023-11-09T03:31:00,mnr,4.77
2023-11-09T03:32:00,mnr,4.89
2023-11-09T03:33:00,mnr,5.37
2023-11-09T03:34:00,mnr,4.96
2023-11-09T03:35:00,mnr,4.94
2023-11-09T03:36:00,mnr,4.96
2023-11-09T03:37:00,mnr,4.93
2023-11-09T03:38:00,mnr,4.88
2023-11-09T03:39:00,mnr,4.82
2023-11-09T03:40:00,mnr,6.04
2023-11-09T03:41:00,mnr,4.80
2023-11-09T03:42:00,mnr,4.75
2023-11-09T03:43:00,mnr,4.86
2023-11-09T03:44:00,mnr,5.20
2023-11-09T03:45:00,mnr,4.80
2023-11-09T03:46:00,mnr,4.74
2023-11-09T03:47:00,mnr,4.78
2023-11-09T03:48:00,mnr,4.73
2023-11-09T03:49:00,mnr,4.75
2023-11-09T03:50:00,mnr,4.70
2023-11-09T03:51:00,mnr,4.73
2023-11-09T03:52:00,mnr,4.74
2023-11-09T03:53:00,mnr,4.79
2023-11-09T03:54:00,mnr,4.88
2023-11-09T03:55:00,mnr,5.53
2023-11-09T03:56:00,mnr,4.96
2023-11-09T03:57:00,mnr,4.97
2023-11-09T03:58:00,mnr,5.07
2023-11-09T03:59:00,mnr,5.00
2023-11-09T04:00:00,mnr,4.93
2023-11-09T04:01:00,mnr,4.87
2023-11-09T04:02:00,mnr,6.31
2023-11-09T04:03:00,mnr,5.22
2023-11-09T04:04:00,mnr,5.25
2023-11-09T04:05:00,mnr,4.50
2023-11-09T04:06:00,mnr,4.69
2023-11-09T04:07:00,mnr,4.63
2023-11-09T04:08:00,mnr,5.06
2023-11-09T04:09:00,mnr,4.39
2023-11-09T04:10:00,mnr,4.57
2023-11-09T04:11:00,mnr,4.57
2023-11-09T04:12:00,mnr,4.36
2023-11-09T04:13:00,mnr,4.86
2023-11-09T04:14:00,mnr,4.34
2023-11-09T04:15:00,mnr,4.34
2023-11-09T04:16:00,mnr,4.46
2023-11-09T04:17:00,mnr,4.45
2023-11-09T04:18:00,mnr,4.87
2023-11-09T04:19:00,mnr,4.35
2023-11-09T04:20:00,mnr,5.23
2023-11-09T04:21:00,mnr,4.33
2023-11-09T04:22:00,mnr,4.35
2023-11-09T04:23:00,mnr,4.87
2023-11-09T04:24:00,mnr,4.28
2023-11-09T04:25:00,mnr,4.26
2023-11-09T04:26:00,mnr,4.55
2023-11-09T04:27:00,mnr,4.28
2023-11-09T04:28:00,mnr,4.22
2023-11-09T04:29:00,mnr,4.22
2023-11-09T04:30:00,mnr,4.98
2023-11-09T04:31:00,mnr,5.12
2023-11-09T04:32:00,mnr,4.35
2023-11-09T04:33:00,mnr,4.43
2023-11-09T04:34:00,mnr,5.27
2023-11-09T04:35:00,mnr,4.35
2023-11-09T04:36:00,mnr,4.35
2023-11-09T04:37:00,mnr,4.53
2023-11-09T04:38:00,mnr,4.46
2023-11-09T04:39:00,mnr,4.38
2023-11-09T04:40:00,mnr,5.05
2023-11-09T04:41:00,mnr,4.23
2023-11-09T04:42:00,mnr,4.22
2023-11-09T04:43:00,mnr,4.18
2023-11-09T04:44:00,mnr,4.95
2023-11-09T04:45:00,mnr,5.33
2023-11-09T04:46:00,mnr,4.55
2023-11-09T04:47:00,mnr,4.58
2023-11-09T04:48:00,mnr,5.30
2023-11-09T04:49:00,mnr,4.73
2023-11-09T04:50:00,mnr,4.75
2023-11-09T04:51:00,mnr,5.02
2023-11-09T04:52:00,mnr,4.73
2023-11-09T04:53:00,mnr,4.89
2023-11-09T04:54:00,mnr,5.44
2023-11-09T04:55:00,mnr,4.96
2023-11-09T04:56:00,mnr,4.69
2023-11-09T04:57:00,mnr,4.90
2023-11-09T04:58:00,mnr,4.88
2023-11-09T04:59:00,mnr,5.28
2023-11-09T05:00:00,mnr,4.91
2023-11-09T05:01:00,mnr,4.82
2023-11-09T05:02:00,mnr,4.85
2023-11-09T05:03:00,mnr,5.30
2023-11-09T05:04:00,mnr,4.85
2023-11-09T05:05:00,mnr,5.67
2023-11-09T05:06:00,mnr,4.82
2023-11-09T05:07:00,mnr,4.85
2023-11-09T05:08:00,mnr,4.86
2023-11-09T05:09:00,mnr,4.86
2023-11-09T05:10:00,mnr,4.81
2023-11-09T05:11:00,mnr,4.81
2023-11-09T05:12:00,mnr,4.94
2023-11-09T05:13:00,mnr,5.58
2023-11-09T05:14:00,mnr,4.97
2023-11-09T05:15:00,mnr,5.65
2023-11-09T05:16:00,mnr,5.59
2023-11-09T05:17:00,mnr,5.09
2023-11-09T05:18:00,mnr,4.91
2023-11-09T05:19:00,mnr,4.99
2023-11-09T05:20:00,mnr,4.95
2023-11-09T05:21:00,mnr,5.62
2023-11-09T05:22:00,mnr,5.14
2023-11-09T05:23:00,mnr,5.10
2023-11-09T05:24:00,mnr,4.76
2023-11-09T05:25:00,mnr,5.28
2023-11-09T05:26:00,mnr,4.75
2023-11-09T05:27:00,mnr,4.68
2023-11-09T05:28:00,mnr,4.53
2023-11-09T05:29:00,mnr,5.05
2023-11-09T05:30:00,mnr,4.59
2023-11-09T05:31:00,mnr,4.61
2023-11-09T05:32:00,mnr,5.15
2023-11-09T05:33:00,mnr,4.62
2023-11-09T05:34:00,mnr,4.61
2023-11-09T05:35:00,mnr,4.63
2023-11-09T05:36:00,mnr,4.58
2023-11-09T05:37:00,mnr,4.62
2023-11-09T05:38:00,mnr,4.57
2023-11-09T05:39:00,mnr,4.52
2023-11-09T05:40:00,mnr,4.51
2023-11-09T05:41:00,mnr,4.38
2023-11-09T05:42:00,mnr,4.39
2023-11-09T05:43:00,mnr,3.92
2023-11-09T05:44:00,mnr,3.97
2023-11-09T05:45:00,mnr,3.98
2023-11-09T05:46:00,mnr,3.94
2023-11-09T05:47:00,mnr,3.86
2023-11-09T05:48:00,mnr,3.86
2023-11-09T05:49:00,mnr,3.88
2023-11-09T05:50:00,mnr,3.85
2023-11-09T05:51:00,mnr,4.32
2023-11-09T05:52:00,mnr,4.50
2023-11-09T05:53:00,mnr,3.94
2023-11-09T05:54:00,mnr,3.89
2023-11-09T05:55:00,mnr,3.85
2023-11-09T05:56:00,mnr,3.89
2023-11-09T05:57:00,mnr,3.92
2023-11-09T05:58:00,mnr,4.55
2023-11-09T05:59:00,mnr,3.98
2023-11-09T06:00:00,mnr,4.47
2023-11-09T06:01:00,mnr,4.99
2023-11-09T06:02:00,mnr,5.70
2023-11-09T06:03:00,mnr,6.98
2023-11-09T06:04:00,mnr,8.53
2023-11-09T06:05:00,mnr,9.65
2023-11-09T06:06:00,mnr,10.85
2023-11-09T06:07:00,mnr,13.09
2023-11-09T06:08:00,mnr,12.48
2023-11-09T06:09:00,mnr,11.20
2023-11-09T06:10:00,mnr,11.59
2023-11-09T06:11:00,mnr,11.57
2023-11-09T06:12:00,mnr,11.54
2023-11-09T06:13:00,mnr,11.61
2023-11-09T06:14:00,mnr,11.45
2023-11-09T06:15:00,mnr,11.53
2023-11-09T06:16:00,mnr,11.52
2023-11-09T06:17:00,mnr,11.53
2023-11-09T06:18:00,mnr,11.58
2023-11-09T06:19:00,mnr,11.75
2023-11-09T06:20:00,mnr,11.47
2023-11-09T06:21:00,mnr,12.22
2023-11-09T06:22:00,mnr,11.38
2023-11-09T06:23:00,mnr,11.75
2023-11-09T06:24:00,mnr,11.75
2023-11-09T06:25:00,mnr,12.62
2023-11-09T06:26:00,mnr,12.61
2023-11-09T06:27:00,mnr,12.31
2023-11-09T06:28:00,mnr,13.47
2023-11-09T06:29:00,mnr,12.77
2023-11-09T06:30:00,mnr,12.78
2023-11-09T06:31:00,mnr,12.82
2023-11-09T06:32:00,mnr,13.02
2023-11-09T06:33:00,mnr,13.53
2023-11-09T06:34:00,mnr,12.99
2023-11-09T06:35:00,mnr,14.14
2023-11-09T06:36:00,mnr,13.87
2023-11-09T06:37:00,mnr,13.87
2023-11-09T06:38:00,mnr,13.75
2023-11-09T06:39:00,mnr,13.75
2023-11-09T06:40:00,mnr,13.70
2023-11-09T06:41:00,mnr,13.69
2023-11-09T06:42:00,mnr,14.25
2023-11-09T06:43:00,mnr,13.67
2023-11-09T06:44:00,mnr,13.60
2023-11-09T06:45:00,mnr,10.39
2023-11-09T06:46:00,mnr,13.71
2023-11-09T06:47:00,mnr,14.14
2023-11-09T06:48:00,mnr,14.98
2023-11-09T06:49:00,mnr,14.28
2023-11-09T06:50:00,mnr,14.33
2023-11-09T06:51:00,mnr,14.21
2023-11-09T06:52:00,mnr,14.78
2023-11-09T06:53:00,mnr,14.02
2023-11-09T06:54:00,mnr,14.88
2023-11-09T06:55:00,mnr,13.97
2023-11-09T06:56:00,mnr,14.02
2023-11-09T06:57:00,mnr,13.89
2023-11-09T06:58:00,mnr,13.98
2023-11-09T06:59:00,mnr,13.89
2023-11-09T07:00:00,mnr,13.95
2023-11-09T07:01:00,mnr,13.76
2023-11-09T07:02:00,mnr,14.03
2023-11-09T07:03:00,mnr,13.81
2023-11-09T07:04:00,mnr,13.73
2023-11-09T07:05:00,mnr,13.99
2023-11-09T07:06:00,mnr,13.68
2023-11-09T07:07:00,mnr,14.19
2023-11-09T07:08:00,mnr,13.84
2023-11-09T07:09:00,mnr,13.27
2023-11-09T07:10:00,mnr,13.12
2023-11-09T07:11:00,mnr,13.13
2023-11-09T07:12:00,mnr,13.91
2023-11-09T07:13:00,mnr,12.49
2023-11-09T07:14:00,mnr,12.54
2023-11-09T07:15:00,mnr,13.63
2023-11-09T07:16:00,mnr,12.32
2023-11-09T07:17:00,mnr,12.25
2023-11-09T07:18:00,mnr,12.54
2023-11-09T07:19:00,mnr,13.37
2023-11-09T07:20:00,mnr,12.92
2023-11-09T07:21:00,mnr,13.55
2023-11-09T07:22:00,mnr,15.00
2023-11-09T07:23:00,mnr,14.54
2023-11-09T07:24:00,mnr,13.45
2023-11-09T07:25:00,mnr,13.10
2023-11-09T07:26:00,mnr,13.12
2023-11-09T07:27:00,mnr,13.10
2023-11-09T07:28:00,mnr,13.03
2023-11-09T07:29:00,mnr,12.89
2023-11-09T07:30:00,mnr,12.93
2023-11-09T07:31:00,mnr,12.84
2023-11-09T07:32:00,mnr,13.40
2023-11-09T07:33:00,mnr,13.32
2023-11-09T07:34:00,mnr,12.97
2023-11-09T07:35:00,mnr,13.44
2023-11-09T07:36:00,mnr,12.88
2023-11-09T07:37:00,mnr,12.90
2023-11-09T07:38:00,mnr,12.80
2023-11-09T07:39:00,mnr,12.81
2023-11-09T07:40:00,mnr,12.80
2023-11-09T07:41:00,mnr,12.71
2023-11-09T07:42:00,mnr,12.65
2023-11-09T07:43:00,mnr,12.63
2023-11-09T07:44:00,mnr,12.79
2023-11-09T07:45:00,mnr,12.77
2023-11-09T07:46:00,mnr,12.64
2023-11-09T07:47:00,mnr,12.73
2023-11-09T07:48:00,mnr,12.98
2023-11-09T07:49:00,mnr,12.80
2023-11-09T07:50:00,mnr,12.95
2023-11-09T07:51:00,mnr,13.04
2023-11-09T07:52:00,mnr,13.68
2023-11-09T07:53:00,mnr,12.88
2023-11-09T07:54:00,mnr,13.50
2023-11-09T07:55:00,mnr,13.94
2023-11-09T07:56:00,mnr,13.95
2023-11-09T07:57:00,mnr,12.82
2023-11-09T07:58:00,mnr,13.18
2023-11-09T07:59:00,mnr,13.57
2023-11-09T08:00:00,mnr,14.69
2023-11-09T08:01:00,mnr,13.77
2023-11-09T08:02:00,mnr,14.89
2023-11-09T08:03:00,mnr,15.47
2023-11-09T08:04:00,mnr,14.11
2023-11-09T08:05:00,mnr,16.09
2023-11-09T08:06:00,mnr,14.59
2023-11-09T08:07:00,mnr,15.30
2023-11-09T08:08:00,mnr,14.22
2023-11-09T08:09:00,mnr,14.24
2023-11-09T08:10:00,mnr,14.42
2023-11-09T08:11:00,mnr,14.52
2023-11-09T08:12:00,mnr,14.19
2023-11-09T08:13:00,mnr,14.40
2023-11-09T08:14:00,mnr,14.36
2023-11-09T08:15:00,mnr,14.37
2023-11-09T08:16:00,mnr,14.38
2023-11-09T08:17:00,mnr,16.00
2023-11-09T08:18:00,mnr,16.05
2023-11-09T08:19:00,mnr,16.14
2023-11-09T08:20:00,mnr,15.95
2023-11-09T08:21:00,mnr,14.08
2023-11-09T08:22:00,mnr,13.89
2023-11-09T08:23:00,mnr,13.81
2023-11-09T08:24:00,mnr,14.08
2023-11-09T08:25:00,mnr,13.81
2023-11-09T08:26:00,mnr,13.82
2023-11-09T08:27:00,mnr,14.44
2023-11-09T08:28:00,mnr,13.82
2023-11-09T08:29:00,mnr,13.89
2023-11-09T08:30:00,mnr,14.24
2023-11-09T08:31:00,mnr,14.63
2023-11-09T08:32:00,mnr,15.51
2023-11-09T08:33:00,mnr,22.15
2023-11-09T08:34:00,mnr,15.08
2023-11-09T08:35:00,mnr,14.84
2023-11-09T08:36:00,mnr,15.03
2023-11-09T08:37:00,mnr,14.62
2023-11-09T08:38:00,mnr,14.57
2023-11-09T08:39:00,mnr,15.13
2023-11-09T08:40:00,mnr,15.23
2023-11-09T08:41:00,mnr,15.29
2023-11-09T08:42:00,mnr,14.53
2023-11-09T08:43:00,mnr,15.21
2023-11-09T08:44:00,mnr,14.70
2023-11-09T08:45:00,mnr,15.31
2023-11-09T08:46:00,mnr,14.78
2023-11-09T08:47:00,mnr,16.93
2023-11-09T08:48:00,mnr,17.63
2023-11-09T08:49:00,mnr,17.10
2023-11-09T08:50:00,mnr,16.17
2023-11-09T08:51:00,mnr,17.47
2023-11-09T08:52:00,mnr,16.30
2023-11-09T08:53:00,mnr,17.39
2023-11-09T08:54:00,mnr,16.41
2023-11-09T08:55:00,mnr,17.02
2023-11-09T08:56:00,mnr,17.25
2023-11-09T08:57:00,mnr,16.74
2023-11-09T08:58:00,mnr,16.23
2023-11-09T08:59:00,mnr,16.28
2023-11-09T09:00:00,mnr,16.28
2023-11-09T09:01:00,mnr,16.24
2023-11-09T09:02:00,mnr,16.14
2023-11-09T09:03:00,mnr,16.82
2023-11-09T09:04:00,mnr,16.13
2023-11-09T09:05:00,mnr,16.06
2023-11-09T09:06:00,mnr,15.93
2023-11-09T09:07:00,mnr,16.06
2023-11-09T09:08:00,mnr,16.48
2023-11-09T09:09:00,mnr,17.77
2023-11-09T09:10:00,mnr,17.14
2023-11-09T09:11:00,mnr,16.73
2023-11-09T09:12:00,mnr,16.85
2023-11-09T09:13:00,mnr,16.01
2023-11-09T09:14:00,mnr,15.88
2023-11-09T09:15:00,mnr,15.84
2023-11-09T09:16:00,mnr,15.68
2023-11-09T09:17:00,mnr,15.58
2023-11-09T09:18:00,mnr,17.06
2023-11-09T09:19:00,mnr,18.12
2023-11-09T09:20:00,mnr,16.78
2023-11-09T09:21:00,mnr,15.75
2023-11-09T09:22:00,mnr,16.99
2023-11-09T09:23:00,mnr,16.57
2023-11-09T09:24:00,mnr,17.08
2023-11-09T09:25:00,mnr,16.50
2023-11-09T09:26:00,mnr,17.20
2023-11-09T09:27:00,mnr,18.27
2023-11-09T09:28:00,mnr,18.82
2023-11-09T09:29:00,mnr,18.48
2023-11-09T09:30:00,mnr,18.45
2023-11-09T09:31:00,mnr,17.19
2023-11-09T09:32:00,mnr,17.62
2023-11-09T09:33:00,mnr,17.02
2023-11-09T09:34:00,mnr,17.30
2023-11-09T09:35:00,mnr,18.10
2023-11-09T09:36:00,mnr,17.60
2023-11-09T09:37:00,mnr,17.23
2023-11-09T09:38:00,mnr,17.06
2023-11-09T09:39:00,mnr,15.89
2023-11-09T09:40:00,mnr,16.06
2023-11-09T09:41:00,mnr,17.44
2023-11-09T09:42:00,mnr,16.62
2023-11-09T09:43:00,mnr,27.57
2023-11-09T09:44:00,mnr,18.65
2023-11-09T09:45:00,mnr,17.50
2023-11-09T09:46:00,mnr,18.23
2023-11-09T09:47:00,mnr,28.97
2023-11-09T09:48:00,mnr,18.03
2023-11-09T09:49:00,mnr,17.14
2023-11-09T09:50:00,mnr,17.54
2023-11-09T09:51:00,mnr,18.21
2023-11-09T09:52:00,mnr,17.60
2023-11-09T09:53:00,mnr,16.27
2023-11-09T09:54:00,mnr,20.21
2023-11-09T09:55:00,mnr,20.16
2023-11-09T09:56:00,mnr,18.86
2023-11-09T09:57:00,mnr,19.30
2023-11-09T09:58:00,mnr,20.32
2023-11-09T09:59:00,mnr,20.49
2023-11-09T10:00:00,mnr,20.25
2023-11-09T10:01:00,mnr,19.96
2023-11-09T10:02:00,mnr,20.02
2023-11-09T10:03:00,mnr,18.85
2023-11-09T10:04:00,mnr,18.70
2023-11-09T10:05:00,mnr,18.73
2023-11-09T10:06:00,mnr,18.78
2023-11-09T10:07:00,mnr,18.81
2023-11-09T10:08:00,mnr,18.95
2023-11-09T10:09:00,mnr,20.22
2023-11-09T10:10:00,mnr,18.90
2023-11-09T10:11:00,mnr,19.35
2023-11-09T10:12:00,mnr,19.01
2023-11-09T10:13:00,mnr,19.02
2023-11-09T10:14:00,mnr,19.12
2023-11-09T10:15:00,mnr,19.08
2023-11-09T10:16:00,mnr,19.04
2023-11-09T10:17:00,mnr,19.73
2023-11-09T10:18:00,mnr,19.11
2023-11-09T10:19:00,mnr,19.08
2023-11-09T10:20:00,mnr,19.13
2023-11-09T10:21:00,mnr,19.62
2023-11-09T10:22:00,mnr,19.67
2023-11-09T10:23:00,mnr,19.71
2023-11-09T10:24:00,mnr,19.26
2023-11-09T10:25:00,mnr,19.01
2023-11-09T10:26:00,mnr,19.21
2023-11-09T10:27:00,mnr,19.28
2023-11-09T10:28:00,mnr,19.28
2023-11-09T10:29:00,mnr,18.94
2023-11-09T10:30:00,mnr,19.09
2023-11-09T10:31:00,mnr,18.96
2023-11-09T10:32:00,mnr,18.97
2023-11-09T10:33:00,mnr,18.97
2023-11-09T10:34:00,mnr,18.96
2023-11-09T10:35:00,mnr,19.65
2023-11-09T10:36:00,mnr,19.11
2023-11-09T10:37:00,mnr,19.54
2023-11-09T10:38:00,mnr,18.86
2023-11-09T10:39:00,mnr,19.04
2023-11-09T10:40:00,mnr,18.85
2023-11-09T10:41:00,mnr,18.96
2023-11-09T10:42:00,mnr,18.86
2023-11-09T10:43:00,mnr,18.94
2023-11-09T10:44:00,mnr,19.12
2023-11-09T10:45:00,mnr,19.57
2023-11-09T10:46:00,mnr,19.22
2023-11-09T10:47:00,mnr,19.01
2023-11-09T10:48:00,mnr,20.53
2023-11-09T10:49:00,mnr,20.23
2023-11-09T10:50:00,mnr,20.35
2023-11-09T10:51:00,mnr,20.61
2023-11-09T10:52:00,mnr,20.22
2023-11-09T10:53:00,mnr,20.91
2023-11-09T10:54:00,mnr,20.73
2023-11-09T10:55:00,mnr,21.33
2023-11-09T10:56:00,mnr,18.81
2023-11-09T10:57:00,mnr,20.30
2023-11-09T10:58:00,mnr,20.44
2023-11-09T10:59:00,mnr,21.10
2023-11-09T11:00:00,mnr,19.20
2023-11-09T11:01:00,mnr,19.60
2023-11-09T11:02:00,mnr,19.25
2023-11-09T11:03:00,mnr,18.20
2023-11-09T11:04:00,mnr,17.54
2023-11-09T11:05:00,mnr,18.08
2023-11-09T11:06:00,mnr,18.09
2023-11-09T11:07:00,mnr,17.80
2023-11-09T11:08:00,mnr,19.95
2023-11-09T11:09:00,mnr,20.12
2023-11-09T11:10:00,mnr,20.11
2023-11-09T11:11:00,mnr,21.23
2023-11-09T11:12:00,mnr,23.41
2023-11-09T11:13:00,mnr,21.67
2023-11-09T11:14:00,mnr,17.75
2023-11-09T11:15:00,mnr,21.68
2023-11-09T11:16:00,mnr,20.54
2023-11-09T11:17:00,mnr,21.02
2023-11-09T11:18:00,mnr,21.04
2023-11-09T11:19:00,mnr,20.49
2023-11-09T11:20:00,mnr,20.70
2023-11-09T11:21:00,mnr,20.39
2023-11-09T11:22:00,mnr,20.24
2023-11-09T11:23:00,mnr,20.88
2023-11-09T11:24:00,mnr,20.74
2023-11-09T11:25:00,mnr,21.83
2023-11-09T11:26:00,mnr,20.14
2023-11-09T11:27:00,mnr,20.79
2023-11-09T11:28:00,mnr,21.24
2023-11-09T11:29:00,mnr,21.08
2023-11-09T11:30:00,mnr,21.76
2023-11-09T11:31:00,mnr,21.61
2023-11-09T11:32:00,mnr,22.40
2023-11-09T11:33:00,mnr,21.80
2023-11-09T11:34:00,mnr,22.17
2023-11-09T11:35:00,mnr,20.04
2023-11-09T11:36:00,mnr,20.41
2023-11-09T11:37:00,mnr,19.68
2023-11-09T11:38:00,mnr,20.58
2023-11-09T11:39:00,mnr,19.80
2023-11-09T11:40:00,mnr,20.22
2023-11-09T11:41:00,mnr,20.76
2023-11-09T11:42:00,mnr,19.67
2023-11-09T11:43:00,mnr,19.59
2023-11-09T11:44:00,mnr,19.13
2023-11-09T11:45:00,mnr,19.08
2023-11-09T11:46:00,mnr,19.22
2023-11-09T11:47:00,mnr,20.47
2023-11-09T11:48:00,mnr,19.14
2023-11-09T11:49:00,mnr,19.23
2023-11-09T11:50:00,mnr,19.32
2023-11-09T11:51:00,mnr,19.30
2023-11-09T11:52:00,mnr,19.01
2023-11-09T11:53:00,mnr,18.89
2023-11-09T11:54:00,mnr,19.19
2023-11-09T11:55:00,mnr,19.83
2023-11-09T11:56:00,mnr,18.90
2023-11-09T11:57:00,mnr,18.94
2023-11-09T11:58:00,mnr,20.10
2023-11-09T11:59:00,mnr,19.20
2023-11-09T12:00:00,mnr,19.19
2023-11-09T12:01:00,mnr,19.30
2023-11-09T12:02:00,mnr,19.22
2023-11-09T12:03:00,mnr,20.20
2023-11-09T12:04:00,mnr,19.16
2023-11-09T12:05:00,mnr,19.22
2023-11-09T12:06:00,mnr,19.42
2023-11-09T12:07:00,mnr,20.60
2023-11-09T12:08:00,mnr,20.70
2023-11-09T12:09:00,mnr,20.75
2023-11-09T12:10:00,mnr,20.62
2023-11-09T12:11:00,mnr,22.15
2023-11-09T12:12:00,mnr,20.98
2023-11-09T12:13:00,mnr,20.94
2023-11-09T12:14:00,mnr,21.77
2023-11-09T12:15:00,mnr,19.44
2023-11-09T12:16:00,mnr,19.22
2023-11-09T12:17:00,mnr,19.36
2023-11-09T12:18:00,mnr,18.80
2023-11-09T12:19:00,mnr,18.79
2023-11-09T12:20:00,mnr,18.75
2023-11-09T12:21:00,mnr,19.51
2023-11-09T12:22:00,mnr,18.62
2023-11-09T12:23:00,mnr,18.54
2023-11-09T12:24:00,mnr,19.69
2023-11-09T12:25:00,mnr,18.67
2023-11-09T12:26:00,mnr,18.62
2023-11-09T12:27:00,mnr,18.55
2023-11-09T12:28:00,mnr,18.32
2023-11-09T12:29:00,mnr,18.64
2023-11-09T12:30:00,mnr,18.60
2023-11-09T12:31:00,mnr,15.70
2023-11-09T12:32:00,mnr,18.37
2023-11-09T12:33:00,mnr,18.01
2023-11-09T12:34:00,mnr,18.15
2023-11-09T12:35:00,mnr,19.86
2023-11-09T12:36:00,mnr,19.16
2023-11-09T12:37:00,mnr,18.19
2023-11-09T12:38:00,mnr,18.18
2023-11-09T12:39:00,mnr,20.20
2023-11-09T12:40:00,mnr,29.64
2023-11-09T12:41:00,mnr,23.36
2023-11-09T12:42:00,mnr,18.90
2023-11-09T12:43:00,mnr,15.59
2023-11-09T12:44:00,mnr,18.79
2023-11-09T12:45:00,mnr,29.89
2023-11-09T12:46:00,mnr,18.58
2023-11-09T12:47:00,mnr,18.32
2023-11-09T12:48:00,mnr,18.71
2023-11-09T12:49:00,mnr,29.65
2023-11-09T12:50:00,mnr,28.37
2023-11-09T12:51:00,mnr,19.50
2023-11-09T12:52:00,mnr,18.87
2023-11-09T12:53:00,mnr,18.90
2023-11-09T12:54:00,mnr,18.90
2023-11-09T12:55:00,mnr,18.99
2023-11-09T12:56:00,mnr,19.50
2023-11-09T12:57:00,mnr,18.72
2023-11-09T12:58:00,mnr,18.79
2023-11-09T12:59:00,mnr,18.70
2023-11-09T13:00:00,mnr,18.66
2023-11-09T13:01:00,mnr,18.66
2023-11-09T13:02:00,mnr,18.63
2023-11-09T13:03:00,mnr,18.65
2023-11-09T13:04:00,mnr,18.66
2023-11-09T13:05:00,mnr,18.76
2023-11-09T13:06:00,mnr,18.67
2023-11-09T13:07:00,mnr,18.64
2023-11-09T13:08:00,mnr,19.76
2023-11-09T13:09:00,mnr,19.73
2023-11-09T13:10:00,mnr,18.96
2023-11-09T13:11:00,mnr,19.64
2023-11-09T13:12:00,mnr,19.67
2023-11-09T13:13:00,mnr,21.49
2023-11-09T13:14:00,mnr,18.56
2023-11-09T13:15:00,mnr,18.85
2023-11-09T13:16:00,mnr,19.01
2023-11-09T13:17:00,mnr,19.26
2023-11-09T13:18:00,mnr,18.93
2023-11-09T13:19:00,mnr,18.92
2023-11-09T13:20:00,mnr,18.80
2023-11-09T13:21:00,mnr,20.23
2023-11-09T13:22:00,mnr,18.86
2023-11-09T13:23:00,mnr,18.90
2023-11-09T13:24:00,mnr,18.97
2023-11-09T13:25:00,mnr,19.04
2023-11-09T13:26:00,mnr,19.06
2023-11-09T13:27:00,mnr,18.99
2023-11-09T13:28:00,mnr,18.99
2023-11-09T13:29:00,mnr,18.94
2023-11-09T13:30:00,mnr,20.37